Clifton, OH

7:08 PM EST on February 08, 2016 (GMT -0500)
Springfield-Beckley Municipal

Weather History for KSGH - October, 2012

Change the Weather History Date:

Saturday, October 20, 2012

  Actual Average (KDAY) Record (KDAY)
Temperature  
Mean Temperature 47 °F 52 °F  
Max Temperature 52 °F 62 °F 84 °F (1953)
Min Temperature 39 °F 43 °F 24 °F (1952)
Degree Days  
Heating Degree Days 18 13  
Month to date heating degree days 198  
Since 1 July heating degree days 288  
Cooling Degree Days 0 0  
Month to date cooling degree days 10  
Year to date cooling degree days 891  
Moisture  
Dew Point 40 °F    
Average Humidity 81    
Maximum Humidity 93    
Minimum Humidity 54    
Precipitation  
Precipitation 0.28 in 0.09 in 1.21 in (1985)
Month to date precipitation 1.92  
Year to date precipitation 33.53  
Snow  
Snow 0.00 in 0.00 in 0.80 in (1989)
Month to date snowfall 0.1  
Since 1 July snowfall 0.1  
Since 1 September snowfall 0.1  
Snow Depth -    
Sea Level Pressure  
Sea Level Pressure 29.81 in    
Wind  
Wind Speed 11 mph (WSW)    
Max Wind Speed 17 mph    
Max Gust Speed 25 mph    
Visibility 6 miles    
Events      
T = Trace of Precipitation, MM = Missing Value Source: NWS Daily Summary

Daily Weather History Graph

Daily Weather History Graph

Search for Another Location

Airport or City:

Trip Planner

Search our weather history database for the weather conditions in past years. The results will help you decide how hot, cold, wet, or windy it might be!

Date:

Astronomy

Oct. 20, 2012 Rise Set
Actual Time 7:51 AM EDT 6:48 PM EDT
Civil Twilight 7:24 AM EDT 7:15 PM EDT
Nautical Twilight 6:52 AM EDT 7:46 PM EDT
Astronomical Twilight 6:21 AM EDT 8:18 PM EDT
Moon 1:26 PM EDT (10/20) 11:33 PM EDT (10/20)
Length of Visible Light 11h 51m
Length of Day
10h 56m
Waxing Crescent, 34% of the Moon is Illuminated
Oct 20
Waxing Crescent
Oct 21
First Quarter
Oct 29
Full
Nov 6
Last Quarter
Nov 13
New

Hourly Weather History & Observations

Time (EDT) Temp. Windchill Dew Point Humidity Pressure Visibility Wind Dir Wind Speed Gust Speed Precip Events Conditions
12:42 AM 44.6 °F 38.8 °F 41.0 °F 87% 29.71 in 6.0 mi SW 11.5 mph - N/A   Overcast
12:46 AM 44.6 °F 38.4 °F 41.0 °F 87% 29.70 in 6.0 mi SW 12.7 mph - N/A   Overcast
12:56 AM 43.9 °F 37.5 °F 41.0 °F 90% 29.71 in 7.0 mi SW 12.7 mph - N/A   Overcast
1:18 AM 44.6 °F 38.4 °F 41.0 °F 87% 29.71 in 7.0 mi SW 12.7 mph - N/A   Overcast
1:39 AM 44.6 °F 38.8 °F 41.0 °F 87% 29.71 in 7.0 mi WSW 11.5 mph - N/A   Overcast
1:56 AM 45.0 °F 38.5 °F 41.0 °F 86% 29.72 in 7.0 mi WSW 13.8 mph - N/A   Overcast
2:36 AM 44.6 °F 39.2 °F 41.0 °F 87% 29.72 in 7.0 mi WSW 10.4 mph - N/A   Overcast
2:56 AM 43.9 °F 37.5 °F 41.0 °F 90% 29.73 in 7.0 mi SW 12.7 mph - N/A   Overcast
3:47 AM 44.6 °F 39.7 °F 41.0 °F 87% 29.73 in 6.0 mi SW 9.2 mph - N/A   Overcast
3:56 AM 43.9 °F 38.8 °F 41.0 °F 90% 29.74 in 7.0 mi SW 9.2 mph - N/A   Overcast
4:04 AM 44.6 °F 39.7 °F 41.0 °F 87% 29.73 in 7.0 mi SW 9.2 mph - N/A   Overcast
4:48 AM 44.6 °F 39.2 °F 41.0 °F 87% 29.73 in 4.0 mi SW 10.4 mph - N/A   Overcast
4:56 AM 43.9 °F 38.8 °F 41.0 °F 90% 29.74 in 2.5 mi SW 9.2 mph - 0.01 in   Overcast
5:01 AM 44.6 °F 39.7 °F 41.0 °F 87% 29.73 in 4.0 mi SW 9.2 mph - N/A   Overcast
5:12 AM 44.6 °F 39.2 °F 42.8 °F 93% 29.73 in 3.0 mi SW 10.4 mph - N/A   Overcast
5:56 AM 43.9 °F 40.5 °F 41.9 °F 93% 29.75 in 4.0 mi WSW 5.8 mph - 0.03 in   Overcast
6:08 AM 44.6 °F 42.2 °F 42.8 °F 93% 29.75 in 4.0 mi WSW 4.6 mph - N/A   Overcast
6:23 AM 44.6 °F 40.7 °F 42.8 °F 93% 29.75 in 1.8 mi WNW 6.9 mph - 0.04 in   Overcast
6:39 AM 44.6 °F 39.7 °F 41.0 °F 87% 29.75 in 2.5 mi West 9.2 mph - 0.12 in   Overcast
6:49 AM 44.6 °F 40.2 °F 41.0 °F 87% 29.76 in 2.0 mi West 8.1 mph - 0.16 in   Mostly Cloudy
6:56 AM 43.9 °F 39.3 °F 41.0 °F 90% 29.77 in 2.5 mi WSW 8.1 mph - 0.17 in   Mostly Cloudy
7:24 AM 42.8 °F 37.5 °F 41.0 °F 93% 29.76 in 3.0 mi West 9.2 mph - 0.03 in   Overcast
7:43 AM 42.8 °F 37.5 °F 39.2 °F 87% 29.76 in 4.0 mi West 9.2 mph - 0.05 in   Overcast
7:56 AM 43.0 °F 38.8 °F 39.9 °F 89% 29.78 in 4.0 mi WSW 6.9 mph - 0.07 in   Overcast
8:22 AM 42.8 °F 37.5 °F 39.2 °F 87% 29.78 in 7.0 mi WSW 9.2 mph - N/A   Overcast
8:49 AM 44.6 °F 40.2 °F 41.0 °F 87% 29.79 in 6.0 mi WSW 8.1 mph - N/A   Overcast
8:56 AM 43.9 °F 38.3 °F 41.0 °F 90% 29.80 in 6.0 mi WSW 10.4 mph - N/A   Overcast
9:56 AM 45.9 °F 40.8 °F 41.9 °F 86% 29.82 in 7.0 mi West 10.4 mph - N/A   Mostly Cloudy
10:15 AM 46.4 °F 41.1 °F 41.0 °F 81% 29.82 in 6.0 mi WSW 11.5 mph - N/A   Haze
10:25 AM 46.4 °F 41.5 °F 42.8 °F 87% 29.82 in 6.0 mi WSW 10.4 mph - N/A   Haze
10:56 AM 45.9 °F 40.0 °F 39.9 °F 80% 29.84 in 6.0 mi West 12.7 mph - N/A   Haze
11:06 AM 46.4 °F 41.1 °F 39.2 °F 76% 29.83 in 6.0 mi West 11.5 mph - N/A   Haze
11:22 AM 46.4 °F 41.1 °F 39.2 °F 76% 29.84 in 7.0 mi West 11.5 mph - N/A   Mostly Cloudy
11:56 AM 48.9 °F - 41.0 °F 74% 29.85 in 6.0 mi WSW 13.8 mph - N/A   Haze
12:05 PM 50.0 °F - 41.0 °F 71% 29.84 in 6.0 mi WSW 16.1 mph - N/A   Haze
12:16 PM 48.2 °F - 39.2 °F 71% 29.84 in 6.0 mi WSW 17.3 mph - N/A   Haze
12:25 PM 50.0 °F - 41.0 °F 71% 29.84 in 7.0 mi WSW 17.3 mph - N/A   Mostly Cloudy
12:56 PM 48.9 °F - 38.8 °F 68% 29.86 in 6.0 mi West 16.1 mph 25.3 mph N/A   Haze
1:11 PM 48.2 °F - 39.2 °F 71% 29.85 in 7.0 mi WSW 15.0 mph - N/A   Overcast
1:19 PM 48.2 °F - 39.2 °F 71% 29.85 in 6.0 mi WSW 16.1 mph - N/A   Haze
1:56 PM 50.9 °F - 38.8 °F 63% 29.86 in 6.0 mi West 16.1 mph - N/A   Haze
2:56 PM 52.0 °F - 37.9 °F 59% 29.86 in 7.0 mi West 15.0 mph - N/A   Overcast
3:56 PM 52.0 °F - 36.9 °F 56% 29.87 in 7.0 mi West 13.8 mph - N/A   Mostly Cloudy
4:56 PM 52.0 °F - 36.0 °F 54% 29.89 in 6.0 mi WNW 12.7 mph - N/A   Haze
5:56 PM 50.9 °F - 36.9 °F 59% 29.90 in 7.0 mi West 9.2 mph - N/A   Scattered Clouds
6:56 PM 46.9 °F - 36.0 °F 66% 29.93 in 7.0 mi West 5.8 mph - N/A   Clear
7:56 PM 45.9 °F 43.6 °F 36.0 °F 68% 29.95 in 8.0 mi West 4.6 mph - N/A   Mostly Cloudy
8:56 PM 45.0 °F 41.8 °F 36.9 °F 73% 29.97 in 7.0 mi SW 5.8 mph - N/A   Overcast
9:56 PM 43.0 °F 39.5 °F 36.0 °F 76% 29.99 in 7.0 mi WSW 5.8 mph - N/A   Mostly Cloudy
10:56 PM 43.9 °F 41.3 °F 37.9 °F 80% 29.99 in 7.0 mi WSW 4.6 mph - N/A   Overcast
11:56 PM 39.9 °F 35.1 °F 36.0 °F 86% 30.01 in 7.0 mi SW 6.9 mph - N/A   Clear